SCP
2 2 2 2 2 1 2 1 1 1 1 1 1 1 1 1 1 1 1 0 0 0 0 0 0 0 0 0 0 0 0 0 0 0 0 0 0 0 0 0 0 0 0
2 2 2 2 1 1 1 1 1 1 1 1 1 1 1 1 1 0 0 0 0 0 0 0 0 0 0 0 0 0 0 0 0 0 0 0 0 0 0 0 0 0 0
1 1 1 1 1 1 1 1 1 1 1 1 1 1 1 1 0 0 0 0 0 0 0 1 1 1 1 1 1 1 0 0 0 0 0 0 0 1 1 0 0 0 0
1 1 1 1 1 1 1 1 1 1 1 1 1 1 1 1 0 0 0 0 1 1 0 0 1 1 1 1 1 1 1 1 0 0 0 0 0 0 1 1 1 0 0
1 1 1 1 1 1 1 1 1 1 1 1 0 0 1 1 0 0 0 0 0 0 0 0 0 0 0 0 1 1 1 1 1 1 0 0 0 0 0 1 1 0 0
1 1 1 1 1 1 1 1 1 1 1 0 0 0 0 0 0 0 0 0 0 0 0 0 0 0 0 0 0 1 1 1 1 1 1 1 0 0 0 0 1 1 0
1 1 1 1 1 1 1 0 0 0 0 0 0 0 0 0 0 0 0 0 0 0 0 0 0 0 0 0 0 0 1 1 1 1 1 1 1 1 0 0 0 1 0
1 1 1 1 1 1 0 0 0 0 0 0 0 0 0 0 0 0 0 0 0 0 0 0 0 0 0 0 0 0 0 1 1 1 1 1 1 1 1 1 0 1 1
1 1 1 1 1 1 1 1 0 0 0 0 0 0 0 0 0 0 0 0 0 0 0 0 0 0 0 0 0 0 0 0 1 1 1 1 1 1 1 1 1 1 1
0 0 1 1 1 1 1 1 1 0 0 0 0 0 0 0 0 0 0 0 0 0 0 0 0 0 0 0 0 0 0 0 0 1 1 1 1 1 1 1 1 1 1
0 0 0 1 1 1 1 1 1 1 0 0 0 0 0 0 0 0 0 0 0 0 0 0 0 0 0 0 0 0 0 0 0 0 0 1 1 1 1 1 1 1 1
0 0 0 0 1 1 1 1 1 1 1 1 0 0 0 0 0 0 0 0 0 0 0 0 0 0 0 0 0 0 0 0 0 0 0 0 1 1 1 1 1 1 1
0 0 0 0 0 0 1 1 1 1 1 1 1 0 0 0 0 0 0 0 0 0 0 0 0 0 0 0 0 0 0 0 0 0 0 0 0 0 1 1 1 1 1
0 0 0 0 0 0 0 1 1 1 1 1 1 1 1 0 0 0 0 0 0 0 0 0 0 0 0 0 0 0 0 0 0 0 0 0 0 0 0 0 1 1 1
0 0 0 0 0 0 0 0 0 1 1 1 1 1 1 1 1 0 0 0 0 0 0 0 0 0 0 0 0 0 0 0 0 0 0 0 0 0 0 0 0 0 0
0 0 0 0 0 0 0 0 0 0 1 1 1 1 1 1 1 1 1 0 0 0 0 0 0 0 0 0 0 0 0 0 0 0 0 0 0 0 0 0 0 0 0
0 0 0 0 0 0 0 0 0 0 0 0 0 0 1 1 1 1 1 1 1 1 0 0 0 0 0 0 0 0 0 0 0 0 0 0 0 0 0 0 0 0 0
0 0 0 0 0 0 0 0 0 0 0 0 0 0 0 0 1 1 1 1 1 1 1 1 1 0 0 0 0 0 0 0 0 0 0 0 0 0 0 0 0 0 0
0 0 0 0 0 0 0 0 0 0 0 0 0 0 0 0 0 1 1 1 1 1 1 1 1 1 0 0 0 0 0 0 0 0 0 0 0 0 0 0 0 0 0
0 0 0 0 0 0 0 0 0 0 0 0 0 0 0 0 0 0 0 1 1 1 1 1 1 1 0 0 0 0 0 0 0 0 0 0 0 0 0 0 0 0 0
0 0 0 0 0 0 0 0 0 0 0 0 0 0 0 0 0 0 0 0 1 1 1 1 1 1 1 0 0 0 0 0 0 0 0 0 0 0 0 0 0 0 0
0 0 0 0 0 0 0 0 0 0 0 0 0 0 0 0 0 0 0 0 0 0 1 1 1 1 1 0 0 0 0 0 0 0 0 0 0 0 0 0 0 0 0
0 0 0 0 0 0 0 0 0 0 0 0 0 0 0 0 0 0 0 0 0 0 0 1 1 1 1 1 0 0 0 0 0 0 0 0 0 0 0 0 0 0 0
0 0 0 0 0 0 0 0 0 0 0 0 0 0 0 0 0 0 0 0 0 0 0 0 0 1 1 1 0 0 0 0 0 0 0 0 0 0 0 0 0 0 0
0 0 0 0 0 0 0 0 0 0 0 0 0 0 0 0 0 0 0 0 0 0 0 0 0 0 0 0 0 0 0 0 0 0 0 0 0 0 0 0 0 0 0
0 0 0 0 0 0 0 0 0 0 0 0 0 0 0 0 0 0 0 0 0 0 0 0 0 0 0 0 0 0 0 0 0 0 0 0 0 0 0 0 0 0 0
Wind_Speed
9 8 7 7 9 8 8 8 9 10 10 11 10 11 11 10 10 9 6 11 14 15 16 15 15 15 14 14 17 19 19 20 20 19 19 18 17 16 16 15 15 14 13
9 8 8 8 9 8 7 7 9 8 9 9 12 13 13 12 11 10 10 10 15 15 15 14 15 16 16 16 16 18 19 20 19 19 20 20 19 18 17 17 16 15 14
8 8 7 8 8 7 7 7 9 8 8 9 12 12 11 12 11 11 12 10 11 16 15 14 14 14 15 16 17 17 18 20 20 20 19 19 20 19 19 18 18 17 16
7 7 7 8 7 6 6 7 8 7 8 8 9 9 9 8 11 12 12 11 10 9 13 16 14 13 14 16 17 16 17 18 19 20 20 19 19 20 20 19 19 18 17
6 6 7 7 6 6 6 7 6 6 7 8 8 8 8 8 9 11 11 12 10 8 8 12 15 13 14 16 16 16 16 17 18 19 20 20 20 19 20 20 20 19 18
7 7 6 7 6 5 6 6 6 6 7 7 8 7 6 7 8 9 10 10 9 10 10 9 10 13 16 15 15 15 16 17 17 18 19 19 20 19 20 20 20 20 19
6 6 6 5 6 6 6 7 6 8 8 6 6 7 7 9 9 8 8 9 9 9 9 9 9 8 9 17 16 15 15 16 17 18 18 18 19 19 19 20 21 21 20
7 6 6 6 6 5 7 7 7 7 6 6 6 6 7 8 8 9 8 9 9 9 10 10 9 8 8 7 12 18 16 15 16 17 18 19 19 19 19 19 21 21 21
7 7 7 7 6 7 6 8 8 10 8 7 7 7 6 5 3 5 7 7 7 7 7 7 8 8 8 7 6 15 16 13 14 16 17 18 19 19 19 19 20 21 21
7 7 6 6 7 7 7 9 9 8 9 8 7 7 8 6 5 3 6 7 8 7 7 5 7 8 8 7 6 4 12 12 13 14 14 16 18 19 19 20 20 21 21
5 6 6 6 6 6 7 9 8 10 8 9 8 6 7 6 8 7 4 5 7 8 7 7 7 6 6 7 5 4 9 9 10 11 11 12 15 18 19 20 21 21 21
4 4 4 4 5 5 6 7 8 11 10 10 8 7 6 7 7 7 7 6 5 5 5 5 6 5 5 5 2 7 2 4 7 9 9 10 11 14 17 18 20 20 21
7 4 4 4 4 4 5 6 7 9 10 10 10 8 8 8 6 6 7 6 5 4 4 6 4 3 2 1 2 4 3 1 3 7 9 10 10 11 13 15 17 19 20
9 7 6 6 6 6 6 5 6 7 7 9 11 10 8 8 8 7 7 6 6 6 6 5 4 4 3 2 3 5 3 4 1 4 7 8 9 10 11 13 14 15 16
10 10 10 9 8 8 7 6 6 6 6 7 8 10 10 9 8 8 8 7 7 6 6 6 5 5 3 3 2 1 3 7 4 1 3 5 7 7 8 10 11 12 13
13 12 12 12 11 10 10 9 7 6 6 6 5 6 8 9 8 8 8 8 7 7 4 5 5 5 3 3 4 4 6 6 7 5 4 4 6 6 6 6 7 9 9
13 13 13 13 13 13 12 11 10 9 9 7 6 5 6 7 7 8 8 9 8 7 7 5 5 4 4 3 6 5 4 5 6 8 8 9 9 10 9 9 8 9 9
14 15 14 15 15 15 15 14 13 12 11 10 9 7 6 4 7 7 7 10 9 8 8 7 6 6 6 5 6 6 5 5 6 10 11 12 13 13 12 11 11 11 10
16 16 16 16 15 15 16 16 15 14 13 12 11 10 9 7 7 5 7 9 8 9 9 7 7 5 5 6 8 7 7 6 6 8 12 13 14 14 14 13 12 12 13
16 16 16 17 16 16 16 16 17 15 14 13 12 12 12 11 9 6 4 7 8 9 9 8 7 7 6 8 8 7 5 4 5 5 8 9 13 15 14 13 13 13 14
16 16 17 17 17 15 15 16 16 16 15 14 13 13 13 14 14 10 5 3 4 6 7 8 8 7 7 8 8 7 7 6 5 3 5 6 7 8 9 11 12 14 14
16 16 16 16 16 14 12 13 14 16 15 14 13 13 13 15 17 16 13 9 5 6 7 7 8 9 9 9 9 8 8 8 5 2 4 4 4 7 7 9 11 13 14
16 15 15 15 15 15 12 12 14 15 14 13 13 11 10 12 16 14 14 13 10 10 11 10 9 9 8 9 11 12 11 9 6 7 5 5 5 8 9 11 13 13 14
14 13 14 14 14 14 13 12 13 15 15 14 12 12 11 9 13 13 13 13 11 10 10 11 12 11 8 8 12 12 11 9 9 5 3 5 5 8 10 10 12 12 13
13 13 13 13 13 13 12 12 13 13 12 14 12 12 12 11 11 12 11 11 11 10 11 14 14 9 6 6 11 10 12 11 7 3 1 5 8 9 9 9 10 12 12
12 12 12 12 12 12 10 12 14 11 11 11 10 10 9 8 11 13 11 10 10 9 9 10 12 11 9 10 15 15 14 13 10 6 3 5 10 8 7 7 8 9 10
Wind_Direction
236 233 235 238 242 241 235 236 245 244 241 237 234 231 233 233 238 242 241 212 218 225 227 225 223 227 228 221 217 219 223 222 218 213 210 211 212 212 209 205 201 201 201
245 243 242 241 244 245 247 247 247 248 246 243 239 234 232 234 234 235 242 234 223 222 222 222 219 221 223 221 218 217 221 225 223 218 214 211 210 211 213 210 205 202 202
255 251 251 246 244 244 244 247 250 247 246 245 244 241 237 238 237 231 235 236 226 210 211 215 217 216 218 219 219 217 217 221 222 219 216 213 210 208 210 211 209 205 201
267 260 253 250 246 243 238 240 243 242 242 245 247 244 236 236 240 236 234 230 235 229 201 205 212 216 219 223 226 223 218 217 218 217 216 214 211 209 207 208 210 208 203
272 261 255 251 241 233 231 240 239 245 248 244 244 237 234 229 235 236 234 235 228 231 234 183 198 212 220 223 226 226 220 214 212 213 215 216 214 210 208 208 208 208 206
261 253 250 246 240 230 229 233 242 242 257 254 257 253 240 234 229 234 233 231 226 225 232 226 205 206 211 219 223 225 222 216 210 209 213 217 219 215 209 208 208 208 207
274 256 256 242 242 240 240 236 235 233 238 243 251 251 244 238 235 235 237 244 235 231 237 233 236 236 204 204 213 220 222 218 211 207 208 212 219 220 214 210 209 209 209
312 278 256 248 237 245 241 245 239 256 245 227 247 258 251 230 214 228 232 231 240 233 227 221 227 226 246 224 197 204 216 220 217 210 208 210 214 217 216 213 210 209 210
335 321 296 271 255 248 242 237 237 241 251 239 232 251 260 256 224 188 216 223 219 222 223 215 220 221 227 241 217 191 200 211 220 219 214 210 209 211 213 213 211 210 211
341 339 324 301 275 253 246 241 233 239 246 250 227 232 259 303 288 225 191 199 204 215 229 224 228 221 225 233 220 203 186 201 215 223 222 216 211 210 212 213 212 211 211
326 336 336 324 303 281 261 250 248 237 237 246 246 224 220 222 238 268 249 197 199 209 215 226 237 237 229 236 232 173 167 197 212 221 225 222 215 212 213 214 214 213 212
294 304 315 317 309 301 288 268 255 241 239 244 252 246 229 225 219 225 242 237 225 216 215 228 232 223 226 239 157 58 91 216 223 223 225 226 222 217 215 215 216 215 213
281 274 277 279 287 285 282 277 265 259 246 238 237 243 243 242 244 230 235 238 238 231 214 215 195 191 174 207 96 21 139 116 238 228 225 224 226 223 218 217 217 216 214
278 277 257 249 252 257 262 264 263 257 254 246 241 243 248 243 237 232 231 232 228 217 201 193 155 155 136 155 81 276 129 77 341 235 222 218 220 222 222 218 214 213 212
273 262 251 246 241 237 239 244 250 253 250 246 245 243 245 247 236 231 227 229 240 230 193 171 183 149 163 115 97 89 72 65 41 50 199 196 197 203 209 209 208 206 204
278 271 261 253 246 238 229 226 232 234 240 239 242 252 249 254 247 232 225 223 231 250 236 164 176 157 135 146 118 99 90 97 67 63 92 130 144 151 153 161 170 176 178
279 273 265 260 252 243 234 226 229 218 223 230 231 237 249 264 265 249 231 222 219 226 229 198 180 159 175 178 139 116 99 87 79 67 79 89 97 102 105 111 120 130 139
279 271 267 263 258 250 239 230 229 222 217 218 220 222 231 247 262 267 255 236 222 216 224 216 193 181 182 168 137 116 100 85 82 73 79 83 85 88 90 93 98 104 109
283 276 269 262 257 253 246 236 232 227 222 221 216 216 218 213 233 245 264 254 235 216 218 218 202 180 178 151 134 117 104 94 89 89 85 84 85 85 85 86 89 92 94
287 279 270 263 257 251 246 240 233 230 226 224 218 214 212 207 211 213 242 264 254 231 213 214 203 189 182 163 155 143 131 114 96 86 81 88 92 88 86 89 93 94 93
289 284 278 268 258 251 243 237 233 229 225 225 221 218 214 208 202 200 200 235 278 257 225 210 205 199 188 172 171 160 141 127 94 107 117 122 123 116 107 102 99 98 97
291 287 280 273 263 253 240 228 232 233 228 225 224 221 218 204 201 197 197 202 232 272 266 233 215 211 198 184 169 157 150 153 134 140 122 114 118 112 107 95 97 102 102
293 288 283 275 267 261 250 226 226 237 231 224 220 218 221 205 193 196 196 199 215 241 263 273 259 239 213 188 171 169 174 170 137 148 133 109 105 99 94 93 101 105 106
290 286 283 278 271 262 244 223 215 230 233 222 214 209 216 204 193 192 190 193 201 214 231 248 258 260 251 199 180 175 157 120 110 121 131 117 114 106 103 105 102 102 105
287 283 281 279 273 265 242 217 207 224 223 218 211 205 203 199 179 182 196 198 201 209 218 236 249 266 291 202 171 156 146 142 131 133 145 130 130 115 107 111 108 101 102
286 283 278 274 272 267 240 208 204 220 213 208 206 204 202 206 167 179 204 205 210 212 213 218 226 229 224 181 166 170 166 160 144 145 185 145 146 134 118 122 134 139 121